Showing default

FLOCK 4G 31, 62652

Orbit data source: Space-Track

FLOCK 4G 31, 62652 is a payload satellite owned by Planet (US) in SSO that was launched on Tue, 14 Jan 2025 UTC via an FALCON 9 launch vehicle from the Air Force Western Test Range (AFWTR). Payload-class satellites include a variety of spacecraft equipped with specific instruments for various scientific and technological missions. These include communications satellites like Starlink; space stations such as the ISS; scientific satellites like the Hubble; Earth observation satellites from companies like Planet Labs, Umbra, and HawkEye 360; GPS; miniature CubeSats for education and research; and military/defense satellites.

Loading next visibility...
Identifier
62652, 2025-009AV
Orbit
SSO
Country
Flag of USUS
Related business
Manufacturer
Planet
Mission
Operational Commercial Imaging
Bus & Motor
CUBESAT 3U, Unknown motor
Mass
5.7 kg wet, 5.7 kg dry
Launch date (UTC)
2025-01-14 (9 months ago)
Launch vehicle
FALCON 9
Launch site
Air Force Western Test Range (AFWTR)
Object type
Payload
Rocket body
Debris
Shape & HBR
Box + 2 Pan, 1.0 m
Radar Cross Section
0.072 m², Medium (>0.1 m² and < 1m²)

Expand to show TLE details & history
Last TLE update: 16 hours ago

TLE from 16 hours ago
0 FLOCK 4G 31
1 62652U 25009AV  25300.69408996  .00010877  00000-0  45982-3 0  9992
2 62652  97.4178  19.2800 0002814  84.5805 275.5753 15.23395818 43448
Epoch: 2025-10-27T16:39Z
TLE epoch observation values (Epoch: 2025-10-27T16:39:29.372Z)
Latitude
-0.00002°
Longitude
93.11536°
Altitude
498.514 km
Speed
7.615 km/s
True Right ascension
01h 17m 07s
True Declination
0° 00' 00"
Sunlit
Object was in full shadow at epoch
Visualization orbit readout
Latitude
Unknown
Longitude
Unknown
Altitude
Unknown
Speed
Unknown
Apparent Right ascension
Unknown
Apparent Declination
Unknown
Sunlit
N/A
Visualization observer readout
Local Sidereal Time
03:51:28
Azimuth
Unknown
Elevation
Unknown
Doppler factor
Unknown
Orbital elements
Apogee altitude
494.502 km
Perigee altitude
490.635 km
Semi-major axis
6,870.706 km
Eccentricity
0.00028
Inclination
97.4178°
RAAN
19.28°
Arg. of periapsis
84.5805°
True anomaly
275.54321°
Mean anomaly
275.5753°
Eccentric anomaly
275.55925°
Mean motion
3.81102 °/min
Orbital period
94.46 mins
BSTAR
0.00045982
Loading maneuver chart data...
Computing Atmospheric mass density...
Loading historical data...
Loading historical data...
Loading historical data...
Loading historical data...
Loading historical data...
Loading historical data...
Loading historical data...

Documentation

Showing up to 5 results
|